DW1693 Everett WA US current weather conditions

sailwx.info

Wind from 339

Air temperature 8.3° C
Dewpoint 6.6° C

Last reported at 2019-Nov-14 05:43 UTC.
Time now 2019-Nov-14 07:05 UTC

Location: N 47°54' W 122°11'.
View on Google Maps.

See reports from other nearby stations

  
Tides and Currents Weather Stations Pressure Air Temp Water Temp Dewpoint Dewpoint Depression Visibility Wind Speed Wind Dir Waves Ship Positions
date/time (UTC)wind fromknots sea level pressurealtimeterstation pressurevisibilityair tempwater tempwave heightnotes
2019-Nov-14 05:43 339 8.3
2019-Nov-14 05:13 339 8.9
2019-Nov-14 05:03 339 8.9
2019-Nov-14 04:26 339 8.9
2019-Nov-14 04:16 339 8.9
2019-Nov-14 04:06 338 8.9
2019-Nov-14 03:56 338 8.9
2019-Nov-14 03:36 338 8.9
2019-Nov-14 03:26 338 8.9
2019-Nov-14 03:16 338 8.9
2019-Nov-14 02:56 338 8.3
2019-Nov-14 02:46 338 8.3
2019-Nov-14 02:36 338 8.3
2019-Nov-14 02:26 338 8.3
2019-Nov-14 02:16 338 8.3
2019-Nov-14 01:56 338 8.9
2019-Nov-14 01:46 338 8.9
2019-Nov-14 01:16 005 9.4
2019-Nov-14 01:06 060 9.4
2019-Nov-14 00:56 060 10.0
2019-Nov-14 00:26 060 10.6
2019-Nov-14 00:16 053 10.6
2019-Nov-13 23:46 288 10.6
2019-Nov-13 23:26 022 10.6
2019-Nov-13 23:16 025 10.6
2019-Nov-13 23:06 009 10.6
2019-Nov-13 22:26 025 10.6
2019-Nov-13 22:16 331 10.6
2019-Nov-13 22:06 331 10.6
2019-Nov-13 21:56 306 10.6
2019-Nov-13 21:46 302 10.6
2019-Nov-13 21:16 068 10.6
2019-Nov-13 20:46 298 1 gusting 2 10.0
2019-Nov-13 20:36 059 10.0
2019-Nov-13 20:26 344 10.0
2019-Nov-13 19:56 188 1 gusting 3 10.0
2019-Nov-13 19:46 051 9.4
2019-Nov-13 19:16 005 0 gusting 2 9.4
2019-Nov-13 19:06 052 1 gusting 2 9.4
2019-Nov-13 18:56 286 0 gusting 3 9.4
2019-Nov-13 18:46 096 9.4
2019-Nov-13 18:26 325 9.4
2019-Nov-13 17:56 310 8.9
2019-Nov-13 17:46 053 0 gusting 2 9.4
2019-Nov-13 17:36 028 9.4
2019-Nov-13 17:16 108 9.4
2019-Nov-13 17:06 108 8.9
2019-Nov-13 16:36 130 8.3
2019-Nov-13 16:26 130 8.3
2019-Nov-13 16:16 130 8.3
2019-Nov-13 16:06 130 8.3
2019-Nov-13 15:56 130 7.8
2019-Nov-13 15:46 130 7.8
2019-Nov-13 15:36 130 7.8
2019-Nov-13 15:26 130 7.8
2019-Nov-13 15:16 130 7.8
2019-Nov-13 15:06 130 7.8
2019-Nov-13 14:56 130 7.8
2019-Nov-13 14:46 130 7.8
2019-Nov-13 14:26 130 7.8
2019-Nov-13 14:06 130 7.2
2019-Nov-13 13:46 130 7.8
2019-Nov-13 13:36 130 8.3
2019-Nov-13 13:06 130 8.9
2019-Nov-13 12:56 130 8.9
2019-Nov-13 12:36 130 8.9
2019-Nov-13 12:06 130 8.9
2019-Nov-13 11:36 130 8.9
2019-Nov-13 11:26 130 8.9
2019-Nov-13 11:06 130 8.9
2019-Nov-13 10:56 130 8.9
2019-Nov-13 10:46 130 8.9
2019-Nov-13 10:36 130 8.9
2019-Nov-13 10:26 130 8.9
2019-Nov-13 10:16 130 8.9
2019-Nov-13 09:46 130 8.9
2019-Nov-13 09:36 130 8.9
2019-Nov-13 09:16 130 8.9
2019-Nov-13 08:56 130 8.9
2019-Nov-13 08:36 130 8.9
2019-Nov-13 08:06 130 8.9
2019-Nov-13 06:26 102 8.9
2019-Nov-13 06:06 102 8.9
2019-Nov-13 05:56 102 8.9
2019-Nov-13 05:46 102 9.4
2019-Nov-13 05:36 019 9.4
2019-Nov-13 05:16 019 9.4
2019-Nov-13 04:56 019 9.4
2019-Nov-13 04:46 019 9.4
2019-Nov-13 04:36 019 9.4
2019-Nov-13 03:56 019 9.4
2019-Nov-13 03:06 019 9.4
2019-Nov-13 02:46 019 9.4
2019-Nov-13 02:36 019 9.4
2019-Nov-13 01:46 094 9.4
2019-Nov-13 01:36 094 0 gusting 0 9.4
2019-Nov-13 01:06 164 10.0
2019-Nov-13 00:56 164 10.0
2019-Nov-13 00:46 164 10.0
2019-Nov-13 00:36 164 10.0
2019-Nov-13 00:16 164 10.0
2019-Nov-13 00:06 164 10.0
2019-Nov-12 23:56 164 10.0
2019-Nov-12 23:46 164 10.0
2019-Nov-12 23:26 164 10.0
2019-Nov-12 22:56 161 10.6
2019-Nov-12 22:16 140 10.6
2019-Nov-12 22:06 248 0 gusting 1 10.6
2019-Nov-12 21:56 138 10.0
2019-Nov-12 21:46 144 10.0
2019-Nov-12 21:16 238 10.0
2019-Nov-12 21:06 135 1 gusting 2 10.0
2019-Nov-12 20:56 139 0 gusting 1 10.0
2019-Nov-12 20:46 139 10.0
2019-Nov-12 20:36 078 10.0
2019-Nov-12 20:16 187 10.0
2019-Nov-12 19:16 149 8.9
2019-Nov-12 18:36 131 8.3
2019-Nov-12 18:26 069 8.3
2019-Nov-12 18:16 069 0 gusting 1 8.3
2019-Nov-12 17:56 065 0 gusting 0 8.3
2019-Nov-12 17:36 065 7.8
2019-Nov-12 17:16 065 7.8
2019-Nov-12 16:56 065 7.2
2019-Nov-12 16:46 065 7.2
2019-Nov-12 16:36 065 7.2
2019-Nov-12 16:26 065 7.2
2019-Nov-12 16:16 065 6.7
2019-Nov-12 15:56 065 6.7
2019-Nov-12 15:36 065 6.7
2019-Nov-12 15:26 065 7.2
2019-Nov-12 15:16 065 7.2
2019-Nov-12 14:56 065 7.2
2019-Nov-12 14:36 065 7.2
2019-Nov-12 14:06 065 7.2
2019-Nov-12 13:56 065 7.2
2019-Nov-12 13:36 065 7.8
2019-Nov-12 13:26 065 7.8
2019-Nov-12 13:16 065 7.8
2019-Nov-12 13:06 065 7.8
2019-Nov-12 12:56 065 7.8
2019-Nov-12 12:46 065 7.8
2019-Nov-12 12:26 065 7.8
2019-Nov-12 12:16 065 7.8
2019-Nov-12 12:06 065 7.8
2019-Nov-12 11:36 065 7.8
2019-Nov-12 10:46 065 8.3
2019-Nov-12 10:36 065 8.3
2019-Nov-12 10:06 065 8.3
2019-Nov-12 09:46 064 8.3
2019-Nov-12 09:36 064 8.9
2019-Nov-12 09:26 064 8.9
2019-Nov-12 09:06 074 8.9
2019-Nov-12 08:56 032 8.9
2019-Nov-12 08:26 286 8.9
2019-Nov-12 07:56 063 8.9
2019-Nov-12 07:46 086 8.9
2019-Nov-12 07:26 087 8.9
2019-Nov-12 07:16 087 8.9